When you browse on this site, cookies collect data to enhance your experience and personalize the content and advertising you see.
Visit our Privacy Policy to learn more. By continuing to use the site, you agree to this use of cookies and data.
  • en France
  • Liste des pays
  • À 7 jours
  • Température de l'eau
  • Carte météo
  • Widgets météo
  • user-avatar
    Se connecter

    Météo par heure à Banka

    Ce jour, 2 Juin, Mardi

    Heure Température Précipitation Vent Pression Humidité
    00:00 +21°C° 0 mm 3 m/s 756 mmHg 74%
    01:00 +20°C° 0 mm 3 m/s 756 mmHg 75%
    02:00 +20°C° 0 mm 3 m/s 756 mmHg 76%
    03:00 +20°C° 0 mm 3 m/s 756 mmHg 77%
    04:00 +21°C° 0 mm 3 m/s 756 mmHg 75%
    05:00 +21°C° 0 mm 3 m/s 756 mmHg 73%
    06:00 +22°C° 0 mm 4 m/s 756 mmHg 71%
    07:00 +25°C° 0 mm 3 m/s 756 mmHg 64%
    08:00 +26°C° 0 mm 3 m/s 756 mmHg 57%
    09:00 +28°C° 0 mm 3 m/s 756 mmHg 49%
    10:00 +29°C° 0 mm 4 m/s 755 mmHg 48%
    11:00 +29°C° 0 mm 5 m/s 755 mmHg 48%
    12:00 +30°C° 0 mm 5 m/s 755 mmHg 47%
    13:00 +29°C° 0 mm 6 m/s 754 mmHg 49%
    14:00 +29°C° 0 mm 6 m/s 754 mmHg 51%
    15:00 +28°C° 0 mm 6 m/s 753 mmHg 53%
    16:00 +27°C° 0 mm 6 m/s 753 mmHg 57%
    17:00 +26°C° 0 mm 7 m/s 753 mmHg 61%
    18:00 +24°C° 0 mm 7 m/s 753 mmHg 65%
    19:00 +24°C° 0 mm 6 m/s 753 mmHg 68%
    20:00 +23°C° 0 mm 5 m/s 753 mmHg 71%
    21:00 +22°C° 0 mm 4 m/s 753 mmHg 73%
    22:00 +22°C° 0 mm 3 m/s 752 mmHg 75%
    23:00 +23°C° 0 mm 2 m/s 752 mmHg 76%

    Demain, 3 Juin, Mercredi

    Heure Température Précipitation Vent Pression Humidité
    00:00 +23°C° 0 mm 2 m/s 752 mmHg 77%
    01:00 +22°C° 0 mm 1 m/s 752 mmHg 78%
    02:00 +22°C° 0 mm 1 m/s 752 mmHg 79%
    03:00 +22°C° 0 mm 1 m/s 752 mmHg 80%
    04:00 +22°C° 0 mm 1 m/s 752 mmHg 77%
    05:00 +23°C° 0 mm 2 m/s 752 mmHg 74%
    06:00 +24°C° 0 mm 2 m/s 752 mmHg 70%
    07:00 +26°C° 0 mm 3 m/s 752 mmHg 62%
    08:00 +28°C° 0 mm 4 m/s 752 mmHg 53%
    09:00 +30°C° 0 mm 5 m/s 752 mmHg 44%
    10:00 +34°C° 0 mm 5 m/s 752 mmHg 39%
    11:00 +36°C° 0 mm 5 m/s 752 mmHg 33%
    12:00 +38°C° 0 mm 4 m/s 752 mmHg 28%
    13:00 +38°C° 0 mm 4 m/s 752 mmHg 28%
    14:00 +38°C° 0 mm 4 m/s 751 mmHg 28%
    15:00 +38°C° 0 mm 4 m/s 751 mmHg 29%
    16:00 +35°C° 0 mm 5 m/s 751 mmHg 37%
    17:00 +32°C° 0 mm 6 m/s 752 mmHg 46%
    18:00 +28°C° 0 mm 7 m/s 752 mmHg 54%
    19:00 +27°C° 0 mm 6 m/s 753 mmHg 55%
    20:00 +26°C° 0 mm 5 m/s 754 mmHg 56%
    21:00 +26°C° 0 mm 5 m/s 755 mmHg 57%
    22:00 +25°C° 0 mm 4 m/s 755 mmHg 59%
    23:00 +25°C° 0 mm 3 m/s 755 mmHg 61%

    Après-demain, 4 Juin, Jeudi

    Heure Température Précipitation Vent Pression Humidité
    00:00 +24°C° 0 mm 3 m/s 755 mmHg 63%
    01:00 +24°C° 0 mm 2 m/s 755 mmHg 64%
    02:00 +24°C° 0 mm 1 m/s 755 mmHg 66%
    03:00 +23°C° 0 mm 1 m/s 755 mmHg 67%
    04:00 +24°C° 0 mm 1 m/s 756 mmHg 64%
    05:00 +25°C° 0 mm 2 m/s 756 mmHg 62%
    06:00 +25°C° 0 mm 2 m/s 757 mmHg 59%
    07:00 +27°C° 0 mm 2 m/s 757 mmHg 54%
    08:00 +28°C° 0 mm 2 m/s 758 mmHg 50%
    09:00 +30°C° 0 mm 2 m/s 758 mmHg 45%
    10:00 +30°C° 0 mm 3 m/s 758 mmHg 46%
    11:00 +30°C° 0 mm 5 m/s 758 mmHg 47%
    12:00 +30°C° 0 mm 6 m/s 758 mmHg 48%
    13:00 +30°C° 0 mm 6 m/s 758 mmHg 50%
    14:00 +29°C° 0 mm 6 m/s 758 mmHg 53%
    15:00 +28°C° 0 mm 6 m/s 758 mmHg 55%
    16:00 +27°C° 0 mm 6 m/s 758 mmHg 58%
    17:00 +26°C° 0 mm 5 m/s 758 mmHg 62%
    18:00 +25°C° 0 mm 4 m/s 758 mmHg 65%
    19:00 +25°C° 0 mm 4 m/s 759 mmHg 68%
    20:00 +24°C° 0 mm 3 m/s 759 mmHg 71%
    21:00 +23°C° 0 mm 2 m/s 759 mmHg 74%
    22:00 +23°C° 0 mm 2 m/s 759 mmHg 74%
    23:00 +23°C° 0 mm 2 m/s 759 mmHg 75%

    5 Juin, Vendredi

    Heure Température Précipitation Vent Pression Humidité
    00:00 +22°C° 0 mm 1 m/s 759 mmHg 75%
    01:00 +22°C° 0 mm 1 m/s 758 mmHg 75%
    02:00 +22°C° 0 mm 1 m/s 758 mmHg 75%
    03:00 +21°C° 0 mm 1 m/s 758 mmHg 74%
    04:00 +22°C° 0 mm 1 m/s 758 mmHg 71%
    05:00 +23°C° 0 mm 1 m/s 759 mmHg 68%
    06:00 +23°C° 0 mm 2 m/s 759 mmHg 65%
    07:00 +25°C° 0 mm 2 m/s 759 mmHg 59%
    08:00 +27°C° 0 mm 2 m/s 760 mmHg 52%
    09:00 +29°C° 0 mm 2 m/s 760 mmHg 46%
    10:00 +29°C° 0 mm 3 m/s 760 mmHg 44%
    11:00 +30°C° 0 mm 3 m/s 760 mmHg 42%
    12:00 +31°C° 0 mm 3 m/s 760 mmHg 40%
    13:00 +32°C° 0 mm 5 m/s 760 mmHg 41%
    14:00 +30°C° 0 mm 6 m/s 760 mmHg 42%
    15:00 +29°C° 0 mm 8 m/s 760 mmHg 43%
    16:00 +28°C° 0 mm 8 m/s 760 mmHg 46%
    17:00 +27°C° 0 mm 8 m/s 760 mmHg 50%
    18:00 +26°C° 0 mm 8 m/s 760 mmHg 53%
    19:00 +24°C° 0 mm 7 m/s 761 mmHg 56%
    20:00 +24°C° 0 mm 7 m/s 762 mmHg 60%
    21:00 +23°C° 0 mm 6 m/s 762 mmHg 63%
    22:00 +23°C° 0 mm 6 m/s 763 mmHg 65%
    23:00 +23°C° 0 mm 6 m/s 763 mmHg 67%

    6 Juin, Samedi

    Heure Température Précipitation Vent Pression Humidité
    00:00 +22°C° 0 mm 6 m/s 763 mmHg 69%
    01:00 +22°C° 0 mm 6 m/s 763 mmHg 69%
    02:00 +22°C° 0 mm 6 m/s 763 mmHg 68%
    03:00 +22°C° 0 mm 6 m/s 763 mmHg 67%
    04:00 +22°C° 0 mm 5 m/s 764 mmHg 66%
    05:00 +23°C° 0 mm 4 m/s 764 mmHg 65%
    06:00 +23°C° 0 mm 4 m/s 764 mmHg 64%
    07:00 +25°C° 0 mm 3 m/s 764 mmHg 59%
    08:00 +26°C° 0 mm 3 m/s 764 mmHg 54%
    09:00 +28°C° 0 mm 3 m/s 764 mmHg 48%
    10:00 +28°C° 0 mm 4 m/s 764 mmHg 47%
    11:00 +29°C° 0 mm 4 m/s 764 mmHg 45%
    12:00 +29°C° 0 mm 5 m/s 763 mmHg 43%
    13:00 +29°C° 0 mm 5 m/s 763 mmHg 44%
    14:00 +29°C° 0 mm 5 m/s 763 mmHg 45%
    15:00 +28°C° 0 mm 5 m/s 762 mmHg 45%
    16:00 +28°C° 0 mm 4 m/s 762 mmHg 48%
    17:00 +27°C° 0 mm 4 m/s 762 mmHg 50%
    18:00 +26°C° 0 mm 4 m/s 762 mmHg 52%
    19:00 +25°C° 0 mm 3 m/s 762 mmHg 56%
    20:00 +25°C° 0 mm 2 m/s 762 mmHg 59%
    21:00 +24°C° 0 mm 1 m/s 762 mmHg 62%
    22:00 +24°C° 0 mm 1 m/s 762 mmHg 63%
    23:00 +23°C° 0 mm 1 m/s 762 mmHg 64%

    7 Juin, Dimanche

    Heure Température Précipitation Vent Pression Humidité
    00:00 +23°C° 0 mm 1 m/s 762 mmHg 65%
    01:00 +22°C° 0 mm 1 m/s 762 mmHg 65%
    02:00 +22°C° 0 mm 1 m/s 762 mmHg 65%
    03:00 +22°C° 0 mm 1 m/s 762 mmHg 65%
    04:00 +22°C° 0 mm 1 m/s 762 mmHg 62%
    05:00 +23°C° 0 mm 2 m/s 763 mmHg 60%
    06:00 +24°C° 0 mm 2 m/s 763 mmHg 57%
    07:00 +25°C° 0 mm 2 m/s 763 mmHg 51%
    08:00 +27°C° 0 mm 2 m/s 763 mmHg 46%
    09:00 +28°C° 0 mm 3 m/s 763 mmHg 40%
    10:00 +29°C° 0 mm 3 m/s 763 mmHg 39%
    11:00 +29°C° 0 mm 4 m/s 763 mmHg 37%
    12:00 +30°C° 0 mm 5 m/s 763 mmHg 35%
    13:00 +30°C° 0 mm 5 m/s 762 mmHg 34%
    14:00 +29°C° 0 mm 5 m/s 762 mmHg 34%
    15:00 +29°C° 0 mm 5 m/s 762 mmHg 33%
    16:00 +28°C° 0 mm 5 m/s 762 mmHg 37%
    17:00 +27°C° 0 mm 4 m/s 762 mmHg 42%
    18:00 +26°C° 0 mm 3 m/s 762 mmHg 46%
    19:00 +25°C° 0 mm 3 m/s 762 mmHg 49%
    20:00 +24°C° 0 mm 2 m/s 762 mmHg 52%
    21:00 +23°C° 0 mm 2 m/s 763 mmHg 56%
    22:00 +23°C° 0 mm 2 m/s 763 mmHg 55%
    23:00 +23°C° 0 mm 2 m/s 762 mmHg 54%
    Voir plus